RH
22 21 19 16 15 15 14 14 14 14 14 14 13 13 13 13 13 12 12 12 12 12 13 12 13 14 17 28 30 34 38 29 37 51 49 35 22 24 22 16 13 13 12 6 12 21 25 25 24 22 20 20 19 25 44 54 56 70 92 98 92 95 96 89 86 87 83 76 77 74 66 66 65 56 47 43 44 41 42 39 27 27 30 30 33 32 34 37
21 21 20 17 16 15 14 14 14 14 13 14 13 13 13 13 13 12 12 11 12 13 13 14 13 14 19 29 33 40 46 42 44 48 42 34 27 21 14 12 10 9 7 4 12 21 25 23 18 16 15 17 21 23 36 51 53 67 94 99 87 85 88 82 77 80 80 74 68 63 62 63 57 51 47 46 46 43 43 37 30 33 34 32 33 33 35 36
21 20 20 18 17 15 14 13 13 13 13 13 13 12 13 12 12 12 11 10 11 13 15 16 14 15 22 30 35 42 57 60 50 41 31 24 19 10 7 7 4 5 5 5 13 21 24 23 14 11 11 13 20 23 28 45 50 54 77 94 87 77 81 82 76 80 80 72 68 69 66 58 53 50 48 50 49 45 40 36 37 39 37 35 34 34 35 35
19 19 19 18 17 14 13 12 13 13 12 13 12 12 12 11 11 11 11 10 13 18 21 20 16 17 24 32 37 45 63 60 38 26 18 13 10 6 7 5 3 5 4 6 14 21 24 22 13 9 11 11 17 22 23 33 42 48 64 82 80 71 77 79 75 81 77 72 75 76 71 66 65 58 54 55 50 47 40 35 37 38 37 36 35 34 34 35
20 20 20 19 17 15 13 11 12 12 12 12 12 11 10 10 10 10 11 14 20 27 28 23 16 19 26 32 41 52 63 49 27 19 13 11 8 5 6 4 6 6 7 14 19 23 23 18 11 8 11 12 16 22 24 26 38 55 63 69 70 67 77 76 72 78 74 72 76 77 77 76 75 69 63 56 49 48 42 34 32 34 35 34 35 34 34 34
30 27 24 22 20 16 12 11 11 11 12 11 11 11 10 10 9 10 13 19 28 31 27 21 16 23 28 32 45 57 55 36 21 16 11 10 7 5 5 5 8 8 13 24 24 24 21 13 8 8 10 12 17 22 26 30 40 62 68 67 69 68 77 78 76 83 78 75 78 80 81 75 75 75 63 52 49 45 37 32 30 31 32 32 33 33 34 32
40 37 33 30 25 20 13 11 11 10 11 11 11 10 10 10 10 12 17 23 31 28 23 19 19 27 29 36 54 61 49 31 17 12 11 10 6 4 5 8 10 10 17 23 21 18 14 9 7 8 10 12 18 18 27 38 43 61 72 72 75 74 80 80 79 86 84 80 79 77 77 73 75 74 60 51 47 38 30 30 29 30 30 31 33 32 33 31
44 42 40 35 31 24 15 12 10 10 11 10 10 10 10 10 10 14 19 25 29 26 22 20 25 29 29 40 51 48 39 28 17 12 11 10 6 3 5 10 11 12 17 17 14 11 8 8 7 8 10 13 16 16 27 41 47 61 71 72 78 82 82 80 78 83 84 81 76 72 74 76 75 74 68 53 39 30 29 30 29 30 30 31 33 32 32 32
44 42 41 39 35 28 19 13 10 10 10 10 10 9 10 10 12 16 20 26 28 25 22 24 30 29 34 49 49 36 25 19 17 13 11 13 11 7 7 10 11 12 14 13 10 9 7 7 7 7 9 11 14 17 26 41 53 60 65 70 80 86 84 83 84 86 87 83 77 73 74 76 73 74 70 52 37 30 28 29 28 30 31 31 32 32 33 33
43 42 41 40 38 31 22 15 11 10 9 10 9 9 10 10 13 17 20 25 28 25 24 29 31 29 42 54 50 36 18 13 18 14 12 17 17 15 13 13 14 13 12 10 8 6 6 6 6 5 7 11 14 20 30 43 54 57 61 71 80 85 83 84 89 89 87 82 77 77 81 79 72 70 60 43 36 30 26 30 29 30 32 31 31 32 34 35
43 42 40 40 39 33 26 19 13 10 9 9 9 9 10 11 15 18 21 24 26 27 27 31 31 36 52 54 47 34 11 9 18 13 13 15 16 17 15 15 15 13 12 9 7 6 6 5 5 5 7 11 15 26 37 43 51 55 60 73 79 82 85 83 87 89 87 83 78 79 82 79 73 71 59 43 36 31 28 30 29 31 33 32 32 35 39 40
41 41 39 40 39 34 29 21 14 10 9 9 9 9 9 11 16 19 21 25 27 28 29 32 35 46 60 56 45 28 8 9 14 11 13 13 13 16 14 14 13 11 10 8 8 7 6 6 5 5 7 10 15 26 37 38 45 52 59 76 80 79 86 86 85 87 86 84 83 80 80 79 75 71 67 55 44 36 33 31 30 33 33 34 35 38 43 43
36 35 36 38 37 35 31 22 15 11 9 9 9 9 9 12 17 20 23 26 28 29 31 32 37 56 65 48 30 16 9 11 11 11 13 11 12 13 12 12 11 10 9 8 9 8 7 6 4 6 5 8 12 17 28 34 42 54 62 73 77 78 89 93 88 87 86 86 84 84 86 87 76 67 69 63 50 42 36 32 32 33 34 36 37 40 43 43
31 28 29 33 35 35 31 24 17 11 9 9 8 9 10 12 17 20 24 28 29 29 32 33 38 58 65 41 17 11 11 11 10 11 12 11 11 11 10 10 9 9 8 8 8 7 8 5 4 6 5 8 11 10 21 34 44 57 62 62 66 78 89 89 85 84 88 88 84 85 89 89 77 67 70 67 60 55 43 33 32 33 36 38 39 41 42 42
26 21 22 26 30 32 31 26 19 13 10 8 8 9 9 12 16 20 25 30 31 30 34 39 42 52 57 37 16 12 12 10 10 10 11 11 11 10 10 9 8 8 6 7 7 6 6 4 5 7 6 7 10 11 17 33 49 54 59 65 63 72 84 82 78 78 84 87 84 87 91 92 80 69 74 76 73 72 58 41 31 31 37 38 40 43 42 42
23 19 18 20 22 27 28 26 21 14 10 8 9 9 9 12 14 19 27 30 31 32 37 46 46 49 49 29 14 13 12 10 10 10 11 10 9 10 9 8 7 6 5 5 5 5 4 4 5 6 8 10 13 17 15 30 55 51 51 66 65 69 83 83 77 73 78 84 84 87 91 92 82 71 77 82 79 77 70 55 39 33 37 40 42 43 43 43
25 21 19 17 16 20 23 24 21 15 10 9 8 9 11 12 13 21 28 30 32 35 40 42 39 44 41 22 12 14 12 9 8 8 8 7 9 9 7 7 5 5 5 4 4 4 3 4 7 8 10 13 15 18 17 26 53 55 44 52 59 63 73 82 84 78 77 83 84 86 86 83 76 71 76 80 79 79 71 63 55 44 39 40 43 44 45 47
32 27 23 19 14 14 19 21 21 16 11 8 8 10 9 11 17 25 31 35 40 45 47 42 38 39 33 20 15 11 7 7 7 7 7 6 7 7 6 6 5 4 3 4 3 3 4 5 8 11 12 16 14 15 19 25 42 51 42 46 58 60 63 75 84 81 77 81 83 86 87 80 71 71 76 80 80 78 69 66 68 59 46 43 44 45 47 48
37 33 29 24 18 14 15 18 20 17 11 8 8 8 12 21 29 32 36 41 42 41 39 37 39 34 20 14 12 6 6 7 6 7 6 6 6 6 7 7 6 5 3 4 4 4 5 7 10 14 15 16 16 13 15 21 32 39 37 44 57 60 63 68 74 75 74 78 83 85 85 81 76 76 77 82 84 80 72 68 72 66 53 47 45 47 50 49
37 35 33 30 24 17 14 16 17 17 14 10 9 12 21 30 31 31 35 38 33 27 22 23 27 21 10 8 7 7 8 7 7 7 6 6 6 6 8 7 6 5 4 5 5 4 5 10 13 15 16 14 13 12 10 14 22 28 31 38 47 58 66 67 70 73 68 72 79 79 79 80 80 80 78 82 87 85 77 71 71 68 58 53 49 48 51 49
33 33 33 32 29 23 16 15 14 16 16 12 15 20 21 21 19 18 21 22 20 19 19 18 13 10 7 7 6 7 8 8 8 6 5 5 5 8 8 7 7 6 6 5 4 5 6 12 13 11 12 11 9 10 10 12 15 19 24 31 43 57 64 66 70 73 68 70 75 73 76 77 76 78 80 84 87 84 79 72 69 67 60 56 53 50 51 49
30 31 31 30 31 27 19 15 12 13 12 12 23 26 19 14 13 12 13 15 14 12 15 13 7 7 7 6 7 7 8 9 9 6 6 6 6 9 8 6 8 7 6 6 7 9 10 12 11 8 8 8 8 9 11 13 13 15 17 26 47 58 64 70 70 71 72 71 73 72 74 81 80 80 83 84 84 80 77 73 69 67 61 58 57 53 52 52
27 28 29 29 29 28 22 15 10 9 7 11 23 24 16 13 11 12 14 16 15 11 11 9 6 7 7 6 7 7 9 9 8 7 6 6 7 9 8 7 8 8 6 6 8 12 13 11 8 7 8 8 10 10 12 13 12 15 15 26 52 59 63 76 75 75 77 70 69 70 76 89 91 88 89 84 79 79 79 78 75 72 66 59 55 51 51 53
23 24 27 28 26 27 24 14 7 8 9 10 14 13 12 12 12 13 16 17 16 12 10 7 5 6 6 6 7 8 9 7 7 7 6 6 8 8 8 7 7 8 6 5 7 9 11 8 6 8 9 9 11 9 10 12 11 12 11 20 46 56 57 68 74 77 75 65 61 67 79 92 91 89 93 86 80 81 82 82 79 75 70 60 52 48 49 52
22 23 25 26 26 27 21 14 13 14 15 15 13 11 11 12 12 14 18 20 18 13 9 6 5 5 5 5 7 8 7 5 5 6 5 5 7 8 7 6 6 8 6 5 6 7 7 6 6 8 8 8 9 8 8 10 10 11 10 11 26 45 50 56 69 75 76 74 66 61 72 88 90 89 90 88 86 84 83 84 79 74 72 65 56 51 50 52
22 22 22 25 27 23 19 20 21 18 15 16 13 10 11 11 12 13 20 24 19 13 9 7 6 6 5 6 6 7 8 7 5 6 6 5 6 7 8 7 7 7 6 5 6 6 5 5 5 7 7 6 7 9 7 6 8 10 11 7 9 30 45 53 63 65 67 75 69 58 64 84 94 88 82 84 88 85 82 84 77 72 73 69 60 53 50 51
24 22 22 24 25 26 27 24 24 23 19 15 11 10 10 11 11 13 27 37 26 13 9 7 7 6 5 6 4 7 11 9 6 6 7 6 6 6 8 9 8 7 5 5 8 7 4 4 5 6 6 6 6 8 6 5 8 8 8 6 5 19 35 44 52 48 48 61 65 61 64 79 90 81 72 78 86 87 85 84 79 73 72 69 61 53 48 49
27 24 23 24 23 28 35 36 40 35 19 10 9 9 9 11 11 13 33 46 26 8 8 7 6 5 4 5 4 6 9 8 9 10 6 6 7 7 9 10 9 8 5 6 11 7 4 5 5 6 6 7 5 5 5 3 6 7 5 5 4 7 15 24 31 33 41 53 58 64 65 67 78 76 70 78 90 93 88 83 80 74 69 67 61 52 47 47
31 28 25 24 23 28 39 46 47 33 15 13 15 12 9 10 13 17 35 44 21 5 8 6 5 6 4 4 5 5 6 6 9 10 6 6 7 7 8 9 8 9 5 6 9 6 6 7 6 7 7 7 6 4 4 3 5 7 5 6 6 5 8 15 19 23 35 42 44 59 66 60 71 83 83 89 94 91 85 78 76 73 69 66 61 53 48 46
35 31 27 25 27 35 43 41 31 19 16 22 20 15 13 12 16 26 39 37 15 5 7 6 5 6 5 5 6 5 5 6 6 7 6 7 7 6 7 7 7 8 7 6 7 5 6 7 7 7 6 6 5 4 5 5 6 6 6 7 6 8 10 13 20 25 35 42 40 51 60 52 61 80 86 88 85 80 78 74 71 71 68 65 61 54 48 45
37 33 29 28 29 36 40 31 20 14 16 20 18 15 16 17 21 30 34 22 10 8 7 5 6 5 5 7 6 6 6 5 5 6 7 8 8 8 8 9 9 11 12 11 10 7 6 7 8 6 5 5 4 4 6 5 6 7 8 7 7 15 16 14 26 35 38 48 52 56 58 51 59 73 73 72 70 66 69 71 70 69 68 64 61 57 47 42
36 32 28 27 26 30 32 23 14 13 15 19 20 17 18 24 28 28 23 13 11 11 6 5 6 4 6 6 5 7 6 6 6 6 8 9 10 11 11 13 12 13 16 15 13 11 7 7 7 6 7 7 6 7 5 5 6 7 9 10 11 19 20 20 33 39 42 56 61 59 60 57 61 63 56 55 57 59 61 62 62 63 65 63 59 56 47 39
34 30 25 22 22 23 21 15 13 17 22 23 22 19 21 31 32 23 16 13 12 9 5 6 5 4 6 5 5 6 5 6 6 6 7 7 9 10 10 11 9 11 14 12 11 12 11 8 7 8 8 7 8 9 9 8 8 8 12 16 19 22 25 30 33 31 43 65 65 56 58 58 56 53 48 50 56 62 65 61 61 60 59 59 57 53 47 39
31 29 24 23 24 20 17 15 14 20 27 25 20 22 28 35 31 19 16 15 11 6 5 6 5 5 6 5 6 6 5 7 6 6 7 6 8 9 9 9 8 8 10 11 12 13 14 14 10 9 10 9 9 10 10 9 10 11 12 17 24 30 36 39 35 30 42 66 67 57 55 55 59 60 54 52 57 65 70 70 72 69 60 57 55 50 46 39
29 29 27 30 28 21 19 20 16 20 29 25 20 26 32 32 25 17 16 13 8 6 6 5 5 6 6 5 5 5 6 7 6 6 7 7 8 9 9 8 7 7 9 13 15 12 13 15 11 9 10 9 9 9 7 10 16 16 14 19 25 28 33 37 36 31 37 57 64 57 55 54 55 58 51 50 58 63 69 74 76 70 61 58 58 55 56 52
27 30 31 33 29 24 23 17 13 22 27 23 25 31 28 23 18 14 13 10 7 7 6 5 6 6 6 7 6 6 6 7 6 7 8 7 7 8 9 8 6 7 9 13 15 12 14 15 9 9 11 9 10 10 8 12 19 20 19 24 25 19 23 37 43 36 33 48 53 50 58 57 51 57 55 52 61 64 65 72 73 66 60 61 65 66 71 71
31 36 39 34 25 28 28 14 11 23 23 20 29 32 22 15 13 10 9 9 8 7 7 9 8 6 8 8 7 7 6 7 7 7 8 8 8 8 7 7 7 7 8 10 12 11 13 14 9 7 10 11 10 10 10 10 14 22 25 25 25 22 25 40 50 44 39 47 43 38 53 60 60 72 68 52 58 63 59 60 61 60 59 61 67 71 72 70
46 52 49 36 20 24 28 16 14 22 19 20 31 31 20 15 12 10 9 9 8 8 9 11 9 7 8 8 8 7 7 9 8 7 9 9 10 10 7 7 8 7 7 8 10 10 10 14 12 7 9 12 9 10 17 16 12 19 21 19 26 35 43 51 50 44 46 51 45 38 52 67 68 72 68 57 60 62 56 55 55 56 57 58 63 70 69 65
54 55 44 30 19 21 24 17 15 18 18 21 27 24 17 13 11 9 8 8 9 10 11 11 9 8 8 7 9 8 7 9 7 7 11 11 12 11 7 8 8 7 7 6 8 9 8 14 16 9 8 10 10 13 22 24 18 17 18 18 24 33 44 48 43 43 49 54 54 46 55 75 76 68 68 67 65 63 62 64 64 59 57 56 57 62 67 68
48 41 29 21 20 21 18 13 14 17 19 20 19 16 11 9 8 7 6 6 8 10 11 10 9 8 8 7 8 8 7 8 7 8 10 10 11 11 8 8 8 7 7 5 7 9 9 15 19 14 9 10 13 15 18 23 24 23 26 27 25 27 36 40 42 50 52 51 56 51 54 75 76 67 69 66 62 68 71 72 72 66 60 60 62 62 66 72
53 39 26 17 19 19 15 15 15 16 18 16 13 12 9 9 8 6 6 6 6 9 9 9 9 8 9 9 8 7 8 8 8 8 9 7 10 13 10 7 6 7 8 7 8 12 15 16 17 16 12 11 13 12 12 18 20 23 29 30 26 34 52 60 62 71 69 61 57 47 54 76 73 62 67 63 60 68 73 75 78 73 67 70 74 69 68 73
55 40 28 18 19 18 15 16 14 12 14 13 10 9 9 10 9 6 7 6 6 8 8 9 9 8 8 9 8 7 8 9 8 8 9 8 9 12 10 7 8 7 8 8 8 14 20 19 18 19 16 12 10 9 11 15 14 16 23 25 23 35 59 72 71 77 79 72 59 45 54 75 69 60 66 69 68 70 71 76 80 79 77 79 82 76 73 76
37 32 26 19 19 17 15 19 17 14 12 10 9 8 8 9 8 7 7 7 7 9 9 9 8 8 8 8 7 7 8 10 9 7 9 10 8 9 8 7 8 7 8 13 14 15 20 21 23 28 24 17 11 8 11 14 14 19 24 25 23 27 40 53 58 59 60 60 58 55 66 78 72 68 74 77 75 71 70 75 79 82 83 83 86 86 81 82
37 36 28 22 19 15 18 22 20 17 14 10 10 9 8 8 8 8 8 7 8 9 9 9 8 7 7 7 7 7 8 11 10 8 9 10 9 9 8 7 9 10 12 17 17 15 18 23 28 33 33 29 22 17 18 20 19 24 29 28 26 25 27 37 48 53 54 53 52 57 71 78 70 69 75 74 71 71 74 76 78 84 87 85 88 90 87 85
45 42 33 25 20 17 20 20 18 19 16 13 12 10 10 10 8 8 8 8 8 7 8 9 8 7 7 7 7 6 7 9 10 10 8 9 9 8 7 7 8 10 15 19 16 12 18 24 26 32 36 36 35 31 28 27 22 21 25 27 25 25 28 40 54 64 65 57 50 57 70 71 62 64 71 69 66 72 78 78 78 83 84 83 86 88 87 86
44 45 38 27 20 19 20 17 16 19 17 17 18 15 13 14 11 8 8 9 9 8 7 7 7 8 7 7 8 7 7 7 9 12 10 9 10 8 8 7 6 14 23 22 14 10 15 20 20 27 33 31 33 30 22 19 19 17 19 21 20 21 30 46 58 65 66 59 54 61 70 68 66 71 76 71 67 73 79 78 79 81 81 80 81 86 87 85
48 49 39 32 31 26 22 19 17 18 17 17 19 17 14 14 13 11 9 9 9 8 8 7 7 9 9 9 9 8 8 8 8 10 10 10 10 8 8 7 9 23 29 18 11 12 17 21 19 20 23 20 18 17 12 13 16 14 15 17 17 23 35 46 51 53 60 63 63 68 73 70 70 72 71 68 67 73 79 81 82 86 87 84 82 86 89 87
42 42 31 32 40 36 33 30 24 23 20 17 16 14 12 14 14 14 11 8 8 8 9 10 9 9 9 9 10 10 11 11 11 11 10 10 10 10 9 7 10 23 22 10 10 15 18 22 17 11 13 13 10 11 10 12 12 10 15 19 18 20 29 39 43 45 53 59 61 70 74 67 61 60 59 62 69 76 82 86 88 89 90 87 84 86 89 88
38 42 35 34 40 39 37 32 27 27 24 23 24 18 14 14 13 13 12 10 10 8 9 12 11 9 9 9 12 16 15 14 15 15 13 13 14 14 14 12 12 16 13 10 14 15 19 27 21 11 14 14 11 12 10 10 11 10 13 17 17 17 20 24 28 33 42 48 48 56 64 63 62 62 63 70 77 79 82 88 90 89 90 89 87 87 89 90
45 51 48 45 43 40 37 32 29 30 27 28 32 25 17 15 13 12 13 13 14 11 10 12 11 10 10 10 13 15 13 13 16 16 13 16 18 18 17 16 15 14 11 12 15 15 21 31 24 14 18 18 12 12 10 9 11 9 9 12 14 15 17 17 18 20 29 39 41 41 50 63 72 72 75 81 81 78 81 87 90 92 92 91 89 89 90 91
49 51 50 53 53 46 42 37 32 32 31 30 30 25 19 18 17 16 15 14 15 14 12 12 11 10 11 12 12 12 10 10 12 11 9 13 17 17 16 14 13 15 14 12 16 17 21 29 24 17 24 25 15 12 12 10 10 10 13 18 17 17 17 17 21 25 29 38 42 41 51 70 78 75 79 83 80 81 86 89 92 93 92 91 92 92 92 92
59 56 51 53 56 48 39 35 31 31 32 28 25 22 18 18 18 18 20 18 14 13 14 15 14 14 14 15 13 11 10 9 9 8 7 9 11 10 12 12 9 13 15 14 18 22 22 25 26 23 28 28 17 13 16 17 20 24 26 25 22 22 23 20 23 30 32 34 38 44 59 74 74 71 78 83 84 89 93 92 95 96 94 93 93 93 93 92
Wind_Speed
16 16 16 16 16 16 16 16 16 16 16 16 16 17 17 18 18 19 19 20 20 20 19 18 16 14 13 13 13 11 12 6 2 5 7 6 6 7 7 7 9 8 9 10 10 9 11 13 16 20 16 10 6 5 8 7 4 3 2 2 2 1 1 2 3 2 1 2 7 7 4 6 2 2 2 3 3 4 6 3 9 14 13 17 21 25 25 24
16 16 16 16 16 16 16 16 16 16 17 17 17 18 18 19 19 20 20 20 21 20 19 18 16 14 12 12 12 11 12 7 5 10 12 11 9 8 8 9 11 11 10 10 11 12 10 8 9 12 9 5 5 6 9 7 4 3 2 2 1 2 1 2 3 2 1 2 3 2 3 5 5 3 1 1 4 4 4 5 13 16 15 18 21 23 24 23
15 16 16 16 16 16 16 16 16 16 17 17 18 18 19 20 20 21 21 21 22 21 19 17 15 13 10 11 10 10 12 8 6 7 8 9 8 7 6 8 9 10 11 10 10 11 12 14 14 9 5 4 4 6 7 7 5 4 4 2 1 1 2 3 3 1 3 4 2 2 2 4 3 1 1 2 5 0 8 10 13 16 15 16 15 18 21 20
15 15 16 16 16 16 16 16 16 16 17 17 18 18 19 20 20 21 22 22 22 21 19 16 13 10 9 9 7 9 8 5 2 2 3 3 4 4 4 6 8 9 10 10 9 12 17 19 15 9 6 5 5 6 5 7 6 2 4 3 2 1 1 2 3 1 4 3 3 3 6 5 4 4 2 3 3 3 7 11 12 15 16 15 14 15 18 18
15 16 16 16 17 17 16 16 16 16 17 17 18 18 19 19 20 22 22 22 21 20 18 14 11 8 8 7 5 7 6 2 1 3 1 2 2 2 5 6 7 9 8 7 9 14 18 16 10 6 5 6 6 5 3 5 7 4 4 5 5 2 1 2 2 2 3 2 5 4 5 2 5 5 5 2 4 4 5 12 14 14 15 15 14 14 15 15
16 16 17 17 17 17 17 17 17 17 17 17 18 18 19 19 20 22 22 21 20 18 16 12 9 7 7 6 4 4 3 1 3 3 1 2 2 1 5 6 7 9 6 5 10 13 14 11 7 5 4 6 8 6 2 6 9 8 3 4 5 2 0 2 3 4 6 4 5 3 2 1 2 3 5 3 1 4 7 13 15 13 14 16 14 13 12 12
17 17 17 18 18 18 18 18 18 17 17 17 18 18 19 19 20 21 21 20 18 17 14 11 8 7 8 6 3 1 2 2 2 3 2 2 1 2 6 7 8 8 5 7 11 10 9 8 7 6 6 6 8 5 7 13 12 11 4 4 5 3 1 2 6 5 3 3 3 2 3 2 2 1 3 2 5 5 11 14 14 14 15 16 13 11 11 10
17 17 18 18 19 19 19 19 18 18 18 17 18 18 19 20 21 20 19 19 17 15 13 11 8 7 8 5 2 2 3 3 2 2 2 1 3 3 6 8 8 8 7 11 12 10 8 7 7 6 5 6 7 3 12 16 11 11 7 7 6 3 2 5 5 6 2 3 2 3 3 3 4 2 3 5 5 7 12 14 14 13 14 13 12 11 10 9
17 18 18 19 20 20 20 19 19 18 18 18 18 18 19 20 20 20 18 18 16 12 12 11 8 7 8 4 2 4 1 6 5 2 3 3 4 3 5 7 8 9 10 14 16 14 7 5 7 6 7 7 9 4 11 13 6 9 11 10 9 2 4 7 5 5 3 1 1 2 1 2 4 3 5 6 5 9 12 14 13 13 12 11 11 10 8 9
18 18 19 20 20 20 21 20 20 19 18 18 18 18 19 20 20 20 17 16 16 11 10 10 7 7 6 3 2 3 1 5 6 4 5 4 3 1 4 6 8 12 13 14 14 12 6 5 8 8 6 6 9 5 10 12 9 12 14 12 10 7 5 5 5 3 1 2 2 2 0 4 2 1 3 3 6 10 12 13 12 12 11 11 10 8 7 10
18 19 19 20 20 21 21 21 21 20 19 18 19 19 19 20 20 20 17 15 15 11 9 8 6 6 4 2 2 2 5 2 7 8 6 4 5 5 7 8 9 12 13 11 12 11 7 8 9 7 4 5 8 7 13 13 14 15 14 12 11 11 6 4 5 2 1 2 3 1 1 4 3 0 2 1 4 8 10 12 12 10 9 9 10 6 6 10
18 19 19 20 21 21 21 22 22 20 20 19 19 19 20 21 21 20 17 13 13 11 9 7 5 5 3 2 5 5 7 2 8 7 6 6 7 7 7 9 8 9 10 8 11 13 11 12 10 6 4 6 7 5 11 12 14 13 11 9 9 11 7 3 4 2 0 2 4 2 2 3 3 2 6 5 2 6 9 10 10 9 7 8 8 5 6 10
18 19 19 20 20 21 22 22 22 21 20 20 20 20 21 21 21 20 17 13 11 10 9 7 4 4 2 3 4 5 6 1 5 3 5 6 8 9 7 7 7 7 9 9 12 15 15 15 11 6 5 6 6 1 7 10 11 9 7 7 6 6 5 1 1 1 1 2 4 2 2 2 3 4 8 7 4 3 7 8 9 8 7 6 7 5 7 9
18 19 20 20 21 21 22 22 22 22 21 20 20 20 21 21 21 20 16 12 9 9 9 6 3 3 1 5 4 4 4 0 3 3 5 7 9 10 9 7 7 8 9 11 12 12 13 14 10 6 4 4 6 4 4 8 6 7 6 5 4 3 3 5 5 5 3 0 4 1 2 3 3 4 7 6 7 4 2 6 9 8 7 6 6 6 7 8
19 19 20 20 21 21 22 22 23 23 22 22 21 21 22 21 21 19 15 12 7 7 9 6 3 2 1 7 6 1 2 5 6 7 6 9 10 8 10 9 7 8 8 9 9 9 12 11 7 4 4 6 8 6 2 4 2 4 5 2 2 3 3 5 6 6 4 3 4 1 2 2 3 4 5 5 7 6 2 2 6 9 9 8 6 6 6 6
21 21 21 20 21 21 22 23 23 24 23 23 22 22 22 22 22 20 15 12 6 6 7 4 4 6 3 4 4 5 7 7 5 7 5 6 9 5 6 7 4 6 6 8 9 8 12 9 4 4 5 5 6 5 4 2 2 0 3 2 3 5 4 3 4 4 6 5 2 1 2 1 3 3 2 5 5 4 4 3 2 7 10 8 6 6 6 6
22 22 22 21 21 21 22 22 23 24 24 23 23 23 22 22 23 20 14 8 6 6 6 5 4 4 4 3 4 4 6 4 1 5 4 4 8 7 3 5 4 7 6 7 9 8 8 5 2 3 3 4 5 4 4 1 2 2 3 4 5 6 5 4 3 4 6 5 2 2 3 1 2 3 1 3 4 3 3 4 5 1 7 8 8 6 5 7
23 23 23 22 22 22 22 23 23 25 25 24 24 23 24 23 21 16 9 4 3 3 6 8 5 1 4 7 7 2 5 5 4 4 4 5 6 6 6 5 3 6 5 5 7 6 3 2 3 3 3 4 5 4 4 4 5 5 5 4 5 6 6 6 5 6 8 6 4 3 3 3 1 2 2 2 2 2 3 3 4 4 2 7 8 6 5 7
24 24 24 24 22 22 22 22 23 25 26 24 23 23 21 17 12 8 3 1 1 2 4 3 5 2 2 5 6 5 8 4 5 7 8 6 6 5 8 8 3 4 4 3 4 5 3 2 3 3 4 5 7 7 6 5 8 8 6 6 7 6 4 6 5 7 10 6 5 6 3 2 0 1 3 2 1 2 2 2 3 4 2 3 7 7 6 7
25 25 25 24 24 23 22 22 22 24 26 25 24 19 11 6 3 2 1 3 5 8 9 6 8 6 3 1 6 10 9 4 4 10 12 7 6 6 7 6 3 4 4 4 5 5 5 3 4 5 7 9 10 12 6 3 6 10 5 5 7 8 5 5 6 6 9 5 4 7 5 3 3 3 4 4 1 2 1 0 3 3 3 0 5 9 8 6
25 25 25 25 26 24 23 23 22 23 24 25 21 10 4 5 3 3 3 4 9 13 15 13 9 3 2 4 1 7 7 4 7 7 10 7 6 5 4 5 4 3 6 8 5 5 5 4 6 8 11 11 11 9 2 8 1 7 4 4 5 7 6 6 7 7 8 4 4 7 7 5 5 5 5 5 3 4 3 3 3 4 4 2 4 9 9 6
26 25 26 27 26 25 25 23 22 22 23 21 13 3 6 8 5 7 7 6 10 12 14 13 8 4 3 2 3 1 3 6 6 6 10 6 6 4 4 5 5 5 8 8 4 5 5 5 9 11 11 10 7 2 6 8 4 1 1 2 5 6 6 4 6 8 7 3 3 6 7 4 2 3 5 4 5 5 4 5 4 4 5 3 3 6 9 7
26 26 27 26 27 27 25 24 22 20 20 15 9 7 10 11 10 13 9 4 9 11 10 9 8 6 7 6 4 3 4 5 5 6 8 4 4 5 5 4 5 6 6 6 4 4 5 5 9 8 5 3 4 6 5 5 4 3 3 3 6 8 7 3 4 8 6 3 5 6 4 3 1 1 3 4 4 3 4 5 4 4 5 5 4 5 8 10
25 26 26 27 28 26 26 27 19 14 16 15 17 17 16 13 12 14 8 4 5 9 10 8 6 5 3 5 5 5 5 4 3 6 8 4 5 6 6 5 5 6 5 8 6 5 3 7 9 3 5 5 6 7 4 3 4 3 4 2 7 11 9 6 7 8 4 0 5 7 4 2 2 1 3 4 3 4 3 5 6 5 5 5 5 5 7 11
26 26 26 27 27 26 27 22 10 11 17 16 20 17 12 9 11 13 7 3 3 6 8 6 3 0 4 3 6 5 4 1 5 5 6 4 5 4 4 4 3 4 4 4 5 5 4 6 4 2 3 4 2 2 2 2 3 4 6 7 9 11 9 10 11 8 3 2 3 4 3 3 3 2 5 4 4 6 4 6 8 7 6 5 4 5 6 9
26 26 26 27 26 28 24 10 8 19 18 12 14 16 10 8 13 13 5 2 3 4 6 5 3 3 4 5 6 2 1 1 6 5 3 4 5 4 4 4 2 2 5 2 1 2 2 4 5 4 4 3 1 2 2 3 3 4 5 6 4 10 15 14 14 8 3 2 4 3 4 1 3 4 7 5 6 8 6 7 9 8 7 6 5 5 6 9
27 26 26 25 24 26 16 7 16 21 10 9 19 23 16 14 16 11 2 1 4 4 7 3 2 5 5 4 4 1 3 2 5 3 3 5 4 4 4 5 3 2 3 1 1 1 3 4 2 3 3 0 3 3 5 5 3 5 6 8 6 7 13 14 13 6 4 4 1 3 3 2 2 6 7 7 6 8 8 9 9 8 8 8 7 6 7 10
28 27 27 24 22 21 13 12 18 14 9 15 21 21 19 18 16 8 1 1 2 2 3 2 3 4 5 6 4 3 2 5 4 2 3 8 4 2 4 7 6 4 2 1 1 3 5 4 2 2 3 4 4 6 6 5 4 5 6 7 6 1 3 6 7 2 3 6 1 3 3 2 2 3 3 7 6 8 10 11 10 10 10 9 9 9 8 11
29 28 27 24 21 16 11 13 14 10 14 19 18 19 20 18 12 2 0 2 1 1 1 2 3 3 3 4 4 6 4 6 3 3 4 6 6 4 2 5 7 7 4 2 3 4 3 1 1 2 1 3 5 6 6 3 2 2 5 6 5 4 3 1 4 2 3 4 2 5 5 2 2 2 3 5 6 9 10 10 10 10 10 9 9 10 8 9
29 29 27 25 19 10 9 16 15 9 17 19 16 19 17 12 5 0 2 2 2 3 3 2 2 5 6 4 5 7 6 5 3 4 4 2 5 6 3 3 4 6 4 4 6 6 4 3 3 2 1 2 3 4 4 2 2 5 6 6 6 6 6 2 3 4 4 1 3 6 8 4 2 3 5 5 6 8 9 8 9 10 11 10 9 10 9 8
29 28 27 25 19 10 8 11 10 9 14 15 16 16 11 5 0 1 3 1 1 2 4 4 5 7 9 6 5 7 6 4 4 5 4 2 4 5 3 3 2 3 4 4 5 7 7 5 3 3 3 2 2 3 5 4 3 3 2 2 3 5 5 3 2 4 2 3 3 4 9 7 3 4 6 8 7 7 9 9 10 12 11 10 9 9 9 7
30 27 26 23 19 15 12 11 10 11 12 13 14 10 5 1 2 4 2 2 1 2 2 3 7 6 7 8 7 8 7 4 5 6 5 4 5 5 5 5 3 1 3 5 5 7 7 5 4 6 4 1 1 0 5 4 2 4 3 3 1 1 3 2 0 2 2 2 2 4 7 4 3 2 2 6 6 4 6 9 12 13 12 11 10 9 9 6
30 28 24 19 17 19 18 16 15 12 10 12 10 4 1 1 3 5 4 4 2 3 2 1 7 3 2 3 5 5 5 2 5 6 4 4 5 6 9 10 6 3 3 3 4 3 4 6 6 7 5 2 1 3 2 3 2 4 3 4 3 1 1 2 2 2 2 1 2 2 3 0 2 1 4 2 2 3 4 2 6 10 12 12 10 9 9 7
32 27 21 15 16 18 18 16 15 9 7 10 6 1 2 3 4 5 7 7 4 5 3 2 5 3 1 4 5 4 4 3 5 4 3 3 4 3 8 10 4 1 1 3 4 3 1 3 5 5 3 3 2 3 2 1 3 2 1 4 3 2 3 2 2 1 1 0 2 2 2 1 2 2 3 4 6 5 7 7 5 2 7 10 9 9 9 8
33 26 19 15 16 16 14 14 12 7 4 5 2 2 4 4 4 5 6 5 4 3 3 4 1 3 3 4 5 3 4 4 6 4 2 4 4 3 2 2 4 3 4 4 4 3 5 2 4 5 7 7 4 2 3 4 3 3 3 5 2 0 2 2 1 2 1 2 0 1 1 0 3 2 2 5 7 5 6 8 6 3 6 7 7 7 6 5
35 28 18 14 17 13 8 9 10 9 5 3 1 3 5 5 5 5 3 5 5 2 2 4 1 4 3 3 4 3 2 2 5 3 2 3 3 2 2 3 5 3 4 4 2 3 5 3 2 3 7 7 3 3 3 3 1 2 3 3 1 1 2 2 2 4 3 2 1 2 1 1 2 1 3 6 7 6 5 5 5 6 6 7 6 5 4 3
36 26 12 13 17 13 8 6 11 12 5 2 2 4 5 6 9 8 6 8 5 2 2 2 2 3 3 3 4 6 3 1 4 3 2 3 3 2 1 5 5 5 5 4 1 3 3 3 7 4 4 7 7 5 1 3 4 3 1 2 3 3 5 3 1 4 3 1 1 1 2 0 1 1 3 4 5 3 4 3 4 6 7 6 5 5 5 5
30 17 11 15 14 13 11 10 13 11 4 2 4 5 5 7 11 10 10 12 8 2 0 1 1 1 2 4 1 8 7 2 3 3 2 3 1 3 3 5 4 3 3 2 2 2 2 2 7 6 3 6 5 6 3 5 6 5 2 1 1 3 2 1 1 1 1 1 2 3 4 2 2 2 2 3 3 2 3 3 1 4 6 6 5 5 6 7
18 7 7 7 7 13 14 15 12 6 2 3 4 4 5 8 11 12 12 12 8 4 1 2 2 2 4 4 2 6 7 5 5 4 1 1 1 3 1 2 4 5 2 1 2 1 1 2 5 7 2 3 1 3 3 2 3 5 3 1 2 3 1 1 1 1 1 1 1 2 2 1 2 1 2 2 2 3 3 3 2 0 2 4 6 7 7 7
9 4 2 7 15 16 16 14 8 3 2 4 4 5 6 9 11 12 13 11 5 2 2 4 4 3 4 6 2 1 3 4 3 1 2 3 3 1 3 1 3 4 3 2 2 2 2 2 1 7 7 2 1 2 3 5 4 4 4 3 2 1 2 2 2 1 2 1 1 1 1 2 2 1 3 3 1 3 3 2 1 2 2 1 2 4 6 7
5 4 1 14 18 16 14 8 4 3 3 5 5 8 9 9 11 12 13 13 6 2 2 6 7 5 6 7 4 0 2 2 1 1 1 2 4 1 3 2 4 5 5 3 2 3 2 1 2 5 7 3 2 2 2 8 7 5 4 2 1 1 3 2 2 2 2 1 2 3 3 2 1 1 3 4 3 1 3 3 3 4 3 2 3 3 3 6
4 4 4 6 15 15 8 3 3 3 3 5 6 9 10 9 11 12 12 10 2 2 3 6 6 5 5 6 5 3 2 3 1 1 2 4 4 3 2 7 8 6 4 3 3 4 1 1 2 4 4 3 4 5 4 9 7 5 5 2 1 3 4 4 2 2 1 1 3 5 3 3 3 3 4 7 6 3 1 3 3 3 3 4 3 4 4 3
2 6 16 12 9 12 4 3 3 3 4 6 9 12 12 10 10 11 10 8 1 3 3 5 5 5 4 3 6 4 2 3 3 2 4 7 6 5 8 9 5 3 3 2 3 4 3 1 2 4 4 4 6 4 4 8 5 4 4 3 3 3 3 4 4 3 2 2 3 1 1 4 4 3 5 5 6 6 5 4 4 4 4 4 2 3 3 3
4 5 12 13 11 11 4 4 3 4 5 8 11 13 12 11 10 11 9 7 4 2 3 4 5 5 4 2 6 5 1 2 3 4 1 6 4 3 7 8 3 3 3 1 1 3 3 2 3 4 4 5 5 3 3 6 4 2 2 3 2 1 2 4 3 3 2 1 1 2 2 4 3 1 2 1 2 5 5 5 6 6 6 5 0 2 1 3
6 4 4 8 11 9 4 4 4 5 6 9 10 11 11 10 10 11 7 6 7 5 4 4 4 6 5 3 5 6 3 1 3 3 1 4 4 5 6 8 6 6 5 5 4 2 0 1 2 3 1 3 3 1 2 1 2 2 3 5 6 5 5 5 4 3 1 1 1 2 4 4 2 2 2 4 2 2 5 4 4 5 6 7 4 1 2 4
4 3 3 4 5 5 4 6 6 7 7 8 7 8 11 11 9 10 9 6 7 8 7 5 5 7 6 4 5 6 5 4 2 2 1 3 1 2 5 6 6 7 7 6 5 3 2 1 2 1 2 4 5 5 6 5 2 2 5 7 5 4 5 6 4 2 3 2 1 3 5 3 3 4 6 4 2 2 5 3 2 2 3 5 6 5 5 4
3 3 4 4 1 3 3 5 5 6 7 7 4 6 11 13 11 7 8 8 7 8 7 6 7 7 6 6 6 5 5 5 5 3 1 1 1 3 6 5 5 8 7 4 4 3 2 1 3 5 6 7 8 9 11 10 8 7 6 4 2 4 8 8 3 4 5 4 2 4 6 4 4 6 6 4 3 5 4 1 1 2 2 3 5 7 9 8
3 4 5 8 4 3 4 6 9 9 10 8 5 6 12 13 12 9 3 5 6 6 4 4 8 9 8 7 6 4 4 5 5 4 2 2 2 2 4 6 7 9 6 4 5 5 2 2 4 5 6 6 7 10 11 10 8 6 2 4 3 2 7 8 6 7 8 5 4 6 8 5 4 6 7 4 3 2 1 3 3 3 5 5 6 8 9 11
4 4 6 9 6 6 7 10 13 13 11 8 3 6 11 13 12 10 6 4 5 5 4 3 8 9 9 9 6 1 2 2 5 5 3 3 2 0 0 3 7 7 5 3 4 4 3 2 5 4 4 6 8 10 12 9 7 5 3 6 6 5 6 6 6 7 9 8 7 8 9 5 1 2 3 2 4 3 3 4 4 4 5 5 5 5 4 6
5 4 6 7 7 7 8 9 10 10 8 7 5 6 9 11 11 10 8 5 3 4 5 7 9 8 10 9 5 4 2 3 5 4 3 2 1 1 0 2 3 4 4 3 3 4 3 4 7 4 0 4 7 9 9 8 8 10 9 6 6 5 5 5 5 4 4 4 4 5 7 3 1 2 6 6 4 4 4 4 3 2 2 2 2 2 2 3
10 10 8 5 5 6 7 7 7 7 6 5 5 7 8 9 11 11 9 8 7 5 4 6 7 6 7 9 7 7 8 7 6 7 4 3 4 3 2 3 4 4 3 2 3 4 3 2 3 2 2 4 5 7 9 8 8 9 6 2 3 3 1 2 1 2 2 2 3 2 2 2 2 3 7 5 3 4 4 3 1 1 1 1 2 2 3 4
13 12 9 5 4 5 6 7 6 5 5 5 7 8 9 9 11 12 8 7 9 8 8 11 7 4 5 8 8 7 7 5 6 9 7 5 6 7 6 6 7 3 1 1 3 5 4 1 1 1 1 3 5 8 8 7 6 5 3 3 5 4 4 5 5 5 4 3 3 1 3 4 4 6 6 4 4 3 1 2 2 1 2 1 1 0 1 3
Wind_Direction
1 359 357 354 352 350 349 347 344 340 336 333 332 331 328 327 326 326 326 326 327 327 328 330 334 338 338 342 343 344 345 347 325 282 248 245 260 270 287 277 282 274 265 267 240 239 248 235 225 233 237 226 224 187 149 141 147 126 79 88 115 197 195 186 189 203 60 145 209 220 154 113 136 259 306 13 39 147 177 190 124 122 123 120 124 132 132 135
0 359 357 355 353 351 349 346 342 338 335 334 332 330 329 328 327 327 327 327 328 326 328 331 335 339 342 352 353 352 352 346 299 276 255 260 270 264 269 270 268 262 256 249 237 241 251 258 246 237 234 224 218 173 151 155 157 131 103 102 151 181 168 215 200 173 210 208 188 167 138 131 146 190 357 63 237 213 150 128 108 109 111 117 127 131 134 139
359 358 357 355 353 351 348 344 341 337 334 333 331 330 329 328 328 328 328 329 328 327 328 332 336 340 350 358 359 2 355 338 292 268 247 245 251 254 262 263 259 254 245 234 240 258 278 294 295 285 269 257 224 188 175 170 168 147 119 115 215 134 103 250 263 81 252 263 68 7 352 96 123 199 60 192 232 139 107 112 110 117 122 126 130 134 139 140
359 358 357 355 354 350 347 344 340 337 333 332 331 329 329 329 329 329 329 330 329 328 330 335 340 344 358 3 6 11 352 318 283 196 192 226 263 262 244 246 242 239 235 230 250 274 284 288 290 288 282 280 243 217 202 165 165 146 109 126 168 146 104 226 219 179 266 289 73 26 25 39 330 336 293 213 140 86 112 121 125 131 132 134 137 143 145 143
359 358 357 356 354 350 346 343 340 336 333 332 330 329 329 330 330 330 330 331 331 331 334 340 345 348 356 1 16 18 358 344 118 158 199 298 315 263 220 225 226 226 223 232 266 277 277 273 272 273 265 273 258 230 205 142 129 98 72 110 129 149 316 276 193 192 265 66 74 48 55 17 320 333 295 281 125 161 146 128 130 133 134 138 144 149 147 153
357 357 357 356 353 350 346 344 340 336 334 332 331 329 329 330 330 331 331 332 334 334 339 347 350 351 351 357 26 35 2 24 132 151 355 355 354 227 200 201 208 212 204 245 271 271 270 257 246 258 249 253 261 252 163 103 108 104 79 105 95 69 175 325 36 30 338 44 74 57 87 307 354 329 307 328 224 179 136 126 129 132 137 142 149 151 154 166
356 355 356 355 351 349 347 345 341 337 334 331 331 329 329 330 331 333 333 334 336 335 341 349 350 349 355 5 22 32 243 250 128 111 16 11 44 166 183 188 195 195 206 261 266 265 264 254 241 246 252 252 263 261 101 89 94 105 111 102 66 342 243 31 68 89 342 30 83 125 139 136 122 287 325 264 232 157 126 125 129 137 142 146 152 151 162 167
354 353 353 353 350 348 347 345 341 337 334 331 330 329 328 330 331 334 333 332 335 336 340 349 356 354 1 13 352 285 235 199 146 93 51 65 93 136 170 176 187 198 238 257 263 272 273 274 265 253 271 285 292 291 102 91 80 94 107 107 99 294 351 51 83 122 101 58 104 131 129 156 178 216 305 240 196 133 126 127 135 143 145 151 153 154 168 157
350 350 350 351 349 348 347 345 342 337 333 330 329 328 328 329 331 333 331 329 330 332 338 347 356 356 1 6 292 301 292 159 160 111 95 109 91 109 162 171 194 213 244 256 260 268 273 294 290 300 315 310 307 307 104 96 80 95 101 105 118 143 56 61 69 83 57 9 108 92 81 258 217 219 281 257 145 127 133 131 142 145 147 158 153 158 163 133
345 346 347 348 347 347 346 345 343 337 333 329 327 326 327 328 329 330 328 326 324 326 340 348 355 360 4 350 280 283 294 158 162 123 101 116 118 146 188 184 207 218 237 257 263 266 274 294 300 312 318 314 315 345 85 95 107 106 104 103 107 103 74 69 66 52 40 351 1 95 5 296 279 175 252 242 128 139 142 134 146 147 152 158 146 153 141 117
344 343 344 345 346 346 345 345 342 337 332 327 326 325 325 326 327 326 324 323 318 318 339 349 352 356 358 325 272 255 311 259 175 143 123 162 186 214 233 221 218 226 242 260 264 267 277 290 303 314 317 327 332 48 86 104 117 116 114 105 99 96 80 75 71 11 30 36 339 87 73 315 316 250 267 293 124 152 145 139 149 147 151 146 134 135 116 113
343 342 342 343 344 344 344 343 341 337 331 326 324 323 324 324 324 322 319 321 315 312 337 347 347 4 358 277 226 239 313 305 177 162 147 184 209 219 242 246 239 249 264 277 280 291 316 314 309 305 304 322 322 70 105 124 123 122 118 103 110 105 78 42 62 15 41 52 320 344 62 328 324 267 283 323 57 154 141 143 152 143 142 133 130 126 109 120
343 341 342 341 342 342 342 340 340 336 329 324 320 321 322 321 322 319 318 323 312 306 327 332 339 22 359 276 222 237 306 7 170 190 164 192 231 225 223 247 252 257 268 277 290 309 326 322 319 306 300 319 308 290 133 137 122 119 115 110 131 107 79 43 79 134 98 51 303 319 113 256 296 279 285 324 17 132 148 157 153 139 140 131 130 125 116 130
344 341 342 341 340 340 339 338 338 334 327 321 317 318 319 319 321 318 318 323 306 299 321 324 333 45 33 266 268 290 297 170 149 198 210 217 229 225 211 219 237 240 253 265 279 296 303 305 311 306 293 278 271 268 150 142 127 120 116 115 128 97 120 170 182 168 128 166 247 252 138 223 272 291 295 338 24 30 170 166 152 142 144 138 131 132 133 142
347 343 343 341 339 338 337 337 336 332 326 319 315 316 317 317 319 318 316 315 297 294 317 313 252 190 296 270 257 270 174 180 176 182 212 231 229 222 198 194 221 226 235 255 270 283 284 287 288 284 273 249 255 272 197 139 116 122 125 101 101 105 133 165 188 178 145 182 230 230 151 210 243 266 310 4 27 18 0 187 170 152 140 138 134 138 143 146
350 348 346 342 339 337 336 335 333 330 325 318 315 314 315 316 316 315 309 306 292 284 311 319 213 191 292 289 175 145 177 192 198 176 178 250 264 272 184 182 220 221 225 246 252 261 270 275 256 255 274 267 262 266 251 139 84 188 159 140 126 130 140 163 191 177 137 139 209 239 166 173 227 230 344 17 21 12 0 326 243 146 139 145 141 148 154 143
350 350 348 344 340 336 335 334 332 329 323 318 316 313 313 314 310 308 306 307 299 275 271 285 261 204 267 278 164 169 188 175 134 178 179 232 261 293 235 198 204 201 210 233 237 237 251 261 233 249 259 263 266 251 261 214 131 234 210 140 134 144 147 164 187 171 146 141 161 192 181 177 186 185 197 26 37 357 344 350 342 95 151 153 142 152 153 138
348 347 347 345 342 338 334 332 330 327 322 319 318 315 312 308 302 303 305 312 318 286 268 276 289 278 258 239 217 125 86 84 88 151 217 215 219 276 262 239 204 180 187 218 231 221 213 218 201 250 250 231 249 230 227 219 159 167 193 141 132 155 157 167 179 173 167 154 135 159 216 224 154 157 174 49 55 321 331 29 349 330 151 143 142 148 145 143
345 344 344 343 342 339 334 332 330 326 323 318 318 318 311 303 296 299 289 224 281 280 276 235 186 222 272 210 194 108 88 97 129 174 222 207 180 235 248 255 247 181 199 204 204 199 186 208 204 239 263 239 238 226 222 211 153 147 173 159 149 157 158 163 160 169 170 153 150 172 188 183 186 227 189 142 58 309 338 21 334 318 353 118 146 148 151 152
344 342 341 340 340 339 334 332 328 325 324 321 325 329 321 316 320 322 211 212 232 237 261 243 203 234 296 163 152 130 122 140 201 203 203 189 182 217 234 240 221 193 229 207 181 197 189 201 216 219 233 233 233 227 249 314 152 150 173 187 154 140 143 151 142 173 177 152 174 175 148 165 197 231 208 150 92 294 250 339 297 284 305 247 155 153 160 161
344 341 339 337 337 336 334 331 325 322 321 319 326 336 311 325 351 346 334 266 249 239 247 246 227 234 341 331 326 141 141 179 230 194 154 172 211 222 212 200 206 214 236 222 186 187 189 205 235 236 237 241 245 228 341 356 185 158 177 187 137 126 143 150 142 174 190 162 167 164 149 180 190 195 197 145 156 235 205 182 256 262 255 229 156 159 163 159
344 342 337 335 334 333 333 328 322 318 313 310 315 287 263 302 341 344 338 299 283 269 249 234 223 206 175 290 323 201 185 191 211 151 132 181 204 194 199 186 204 215 226 227 169 156 192 225 236 238 246 252 267 280 41 356 317 64 1 120 109 122 120 127 153 171 193 174 155 167 149 144 166 193 198 172 181 216 206 189 213 251 249 214 156 170 168 155
344 341 337 336 331 330 331 325 319 310 303 296 279 254 275 303 349 351 336 285 287 287 263 226 228 236 185 170 162 189 242 207 185 142 143 193 207 210 229 213 229 232 220 212 182 175 185 233 244 248 282 299 349 20 30 327 315 0 336 60 118 159 146 141 182 178 202 202 157 162 126 81 12 288 231 219 222 240 214 200 210 244 252 221 180 187 175 160
343 341 338 336 330 330 330 324 317 309 310 298 274 275 287 302 349 0 338 268 273 279 261 220 226 259 137 139 171 196 248 222 150 143 149 185 233 231 233 227 247 262 226 191 200 229 245 281 270 283 37 41 19 357 350 316 320 318 274 172 159 180 168 144 161 174 196 270 154 146 87 3 256 251 257 234 240 272 226 199 221 237 252 232 184 190 186 168
344 341 338 336 332 329 328 325 323 333 330 299 277 288 299 307 347 357 339 268 263 269 248 203 185 262 92 147 198 200 251 182 104 119 148 190 254 268 273 250 226 269 275 194 195 217 234 299 301 115 85 84 73 307 300 290 280 273 243 220 201 180 145 129 145 158 131 27 232 166 110 294 282 246 244 219 206 240 222 202 218 221 237 242 191 190 195 174
343 340 338 337 333 330 331 331 329 333 326 293 304 335 347 346 349 347 342 254 272 240 204 178 151 168 155 189 203 152 358 200 121 114 145 192 238 258 291 296 187 229 309 325 282 223 212 325 8 67 45 23 341 264 275 281 283 279 258 262 240 143 133 146 157 160 148 153 244 211 145 244 300 261 230 203 201 221 217 210 216 211 215 229 213 195 188 181
342 339 337 335 334 336 335 307 319 329 314 297 333 346 348 348 342 336 350 247 271 193 170 162 145 182 181 181 204 110 59 158 150 149 178 171 210 239 237 275 271 225 280 22 23 303 224 260 272 159 131 69 288 264 222 214 237 269 281 312 329 116 138 161 162 163 157 121 264 238 144 126 272 257 218 185 199 219 217 216 216 211 207 214 222 211 187 182
340 338 336 331 333 333 319 303 317 321 299 309 326 333 336 336 331 333 27 287 273 166 163 164 133 173 182 155 189 235 138 147 168 237 183 156 182 247 227 264 299 291 267 90 125 234 220 220 214 176 153 165 225 247 232 209 209 251 282 305 315 63 140 155 134 119 121 100 10 241 149 116 252 270 181 162 194 223 221 217 212 210 206 205 215 221 201 180
338 337 333 328 327 325 315 308 301 298 320 327 325 322 324 321 319 352 200 276 207 167 163 138 123 166 204 152 184 244 204 159 181 213 166 160 188 206 240 271 298 298 285 277 245 247 246 217 70 53 110 182 225 250 257 236 221 301 330 328 344 356 317 142 121 104 88 85 244 205 164 153 268 268 142 154 204 225 221 214 208 208 207 202 205 220 214 180
337 336 332 326 323 321 317 302 288 313 340 338 331 323 316 309 318 90 254 253 178 190 158 116 134 180 205 191 199 238 224 176 178 188 173 177 194 192 217 245 277 297 292 264 255 253 227 161 76 47 205 270 297 303 299 303 0 4 3 1 5 344 312 296 135 109 77 350 255 198 177 182 257 231 183 181 208 216 210 207 204 200 203 202 200 215 217 186
335 333 329 322 313 300 296 286 280 325 338 334 335 326 310 301 250 224 257 243 231 201 165 147 148 173 193 203 208 218 223 200 164 177 186 181 196 206 238 228 225 297 293 271 254 244 223 166 127 176 193 270 310 321 304 312 356 338 343 26 13 336 321 331 45 74 101 240 261 181 163 170 232 233 208 214 214 200 194 196 195 193 198 200 195 211 220 193
333 331 323 313 298 277 260 257 278 313 330 334 333 320 304 322 213 237 246 290 297 173 209 172 155 186 208 211 219 195 201 213 160 181 203 186 192 202 218 214 172 167 270 264 239 231 217 183 169 158 140 250 197 218 288 277 228 222 197 146 153 309 317 309 24 126 167 230 247 153 136 159 226 214 226 226 218 194 187 193 189 186 189 194 194 204 217 203
333 330 320 303 283 268 261 268 285 305 333 332 319 297 279 281 236 236 233 272 272 157 281 183 151 199 270 250 254 174 169 211 174 188 199 195 217 204 207 218 209 190 216 262 278 247 182 176 170 136 128 234 172 136 247 262 245 232 180 140 156 178 303 278 266 177 136 313 262 152 110 324 243 348 4 40 98 67 64 121 177 184 187 186 189 198 212 215
334 331 323 303 279 269 267 272 275 282 315 316 304 239 247 247 242 253 246 258 244 174 196 144 152 194 238 265 269 165 149 192 192 197 165 195 254 234 209 211 213 299 346 349 333 352 33 186 164 130 146 232 228 149 161 329 314 293 98 110 124 136 148 186 289 341 75 260 287 32 67 199 169 248 307 69 87 78 73 74 83 187 206 182 183 197 210 223
335 332 325 302 281 275 268 262 255 246 272 292 285 214 233 232 243 257 253 270 282 188 145 104 124 252 203 232 254 184 156 171 194 231 202 205 254 296 264 153 93 21 27 23 343 342 352 352 145 144 169 187 207 168 84 47 358 333 21 67 78 177 151 163 251 318 43 133 235 7 351 242 131 194 297 71 70 55 77 96 108 194 217 177 183 196 203 243
335 333 322 285 271 275 268 243 213 192 210 247 230 229 231 241 260 258 274 310 307 299 56 91 203 264 221 211 221 184 136 155 184 211 250 242 256 274 293 73 67 38 59 53 327 331 354 334 242 188 163 150 112 73 59 70 134 326 12 42 328 316 67 81 317 336 19 85 192 191 164 320 92 48 357 60 62 35 55 107 152 191 191 170 184 195 194 258
333 331 313 268 262 253 234 196 172 174 195 220 212 244 248 254 260 260 297 319 289 226 1 19 198 230 237 239 204 166 152 197 175 167 239 235 244 267 108 91 70 39 57 81 335 322 348 300 293 296 144 123 105 114 34 42 99 99 25 302 302 14 55 72 41 350 11 74 275 307 101 12 312 297 328 51 67 54 56 76 150 167 167 169 181 197 213 230
326 321 290 275 261 224 197 163 160 173 186 214 238 263 269 263 266 279 310 317 304 243 162 311 237 222 282 296 199 159 161 167 169 184 211 180 221 315 27 76 93 73 46 96 129 309 359 351 304 315 107 133 135 140 115 45 69 96 135 231 65 62 29 4 93 22 4 70 303 347 65 60 328 308 337 21 44 84 89 64 93 153 168 177 177 189 213 225
317 301 285 272 195 175 168 158 166 183 193 214 238 253 260 268 273 278 280 280 299 330 303 254 246 232 264 277 204 164 168 175 190 200 175 118 243 286 339 83 119 110 88 129 136 275 347 111 285 310 8 152 157 87 114 104 75 85 73 38 95 122 164 346 50 126 64 21 284 338 52 67 268 320 355 325 336 39 73 76 26 353 190 186 181 184 195 209
306 281 294 135 140 151 155 160 176 188 208 227 242 252 261 274 273 272 267 257 264 326 287 285 285 266 279 287 290 163 186 204 210 129 84 156 187 286 314 256 138 92 55 96 106 355 2 93 297 316 325 328 62 41 134 152 139 99 68 49 61 80 67 29 16 70 53 343 276 298 308 259 238 355 343 322 356 42 73 105 329 278 258 273 227 191 184 195
292 293 130 128 137 151 153 163 202 187 218 244 249 256 262 272 278 282 283 272 252 199 244 282 289 306 320 314 324 346 226 253 275 50 1 191 155 128 311 349 83 63 27 16 52 41 18 12 331 306 315 1 38 335 100 112 109 107 105 111 164 134 83 66 351 3 58 43 294 298 284 274 306 351 323 330 355 84 163 179 217 226 221 247 262 262 229 199
277 310 300 137 143 156 161 195 224 190 221 243 240 253 260 264 272 278 284 285 260 146 264 278 279 289 292 295 310 314 309 329 305 161 36 47 87 114 69 48 51 55 34 358 13 29 356 278 307 290 294 348 339 326 77 97 97 109 117 98 90 110 105 114 196 261 87 137 277 293 287 269 296 350 357 349 347 339 273 229 239 236 236 241 239 258 278 234
312 307 296 287 178 167 199 243 224 219 225 241 248 254 259 261 266 269 279 297 343 137 235 266 274 269 252 277 312 321 22 6 297 282 52 65 77 97 94 79 51 35 44 18 9 0 332 329 349 307 307 333 319 305 90 90 83 95 91 57 63 97 118 139 155 155 133 200 240 273 298 272 282 0 28 1 335 329 331 325 318 309 285 276 215 197 260 270
315 279 287 282 205 185 239 245 237 251 228 238 247 248 254 258 260 260 263 275 267 208 221 243 252 258 251 292 301 298 46 104 256 272 25 81 102 140 120 121 130 74 78 105 46 3 333 341 3 354 344 338 326 314 30 51 63 104 100 96 116 122 102 111 113 101 108 204 138 120 248 256 259 46 97 168 315 329 327 331 333 321 307 306 280 148 249 281
302 251 264 262 208 196 247 249 263 277 257 256 253 255 267 264 255 255 259 279 278 276 277 251 243 256 251 238 260 272 276 223 222 242 196 104 143 186 148 131 117 95 119 146 127 93 60 337 0 51 53 305 306 279 290 297 158 185 180 164 173 182 156 133 111 92 118 201 140 157 219 245 276 327 248 204 131 350 290 301 345 331 318 323 337 356 305 295
316 282 279 271 204 197 242 249 262 271 274 283 284 284 285 278 267 244 223 237 265 270 277 261 248 259 256 243 250 260 267 272 283 268 176 103 121 163 129 123 118 114 129 132 110 96 98 62 311 238 193 244 259 262 274 269 238 237 208 182 175 177 145 114 97 135 165 171 230 200 193 225 255 250 254 249 128 194 250 270 16 336 316 337 350 345 324 306
301 292 311 345 312 236 241 249 260 260 261 265 266 282 278 278 288 264 201 191 218 242 258 257 247 244 232 231 238 230 238 258 273 285 295 53 32 142 148 156 130 115 122 126 116 113 115 157 239 251 240 241 253 268 283 278 261 251 226 183 86 94 121 122 152 191 147 110 286 224 186 196 227 221 235 242 200 211 226 231 318 302 321 350 21 8 337 320
291 290 332 358 339 302 324 309 303 300 284 263 236 258 269 273 290 299 241 179 201 215 220 257 264 254 240 247 249 209 191 225 250 274 290 253 235 188 177 164 139 137 149 154 143 132 126 200 225 249 259 269 281 287 291 284 269 266 213 127 94 117 150 168 194 174 147 149 204 199 188 201 215 208 215 212 179 190 17 14 337 354 3 353 29 38 354 333
312 305 339 355 334 312 314 305 306 309 300 293 283 268 268 268 275 286 281 237 216 200 179 239 271 271 262 264 279 313 109 179 238 253 261 239 205 143 319 122 131 160 173 155 156 137 115 211 231 245 290 309 305 297 301 311 314 306 259 187 185 189 187 211 217 178 171 185 189 183 182 187 218 176 164 92 78 83 61 32 2 19 27 359 12 44 16 344
334 335 338 339 321 313 310 305 310 310 307 317 315 287 278 272 270 278 285 286 246 195 196 228 244 266 282 281 291 318 305 255 254 255 264 272 234 103 116 136 151 205 205 166 162 141 124 215 224 194 199 291 281 277 283 287 279 275 270 238 198 180 183 219 229 200 186 190 185 182 171 156 355 58 87 75 79 101 91 71 31 11 41 3 340 27 12 340
340 340 342 329 306 315 315 310 308 302 306 309 290 289 297 297 300 300 298 305 296 269 281 282 243 235 284 291 284 277 265 261 279 280 253 218 212 180 152 182 182 181 208 195 135 135 147 242 240 157 160 249 268 282 284 284 276 270 281 18 79 107 99 294 253 129 109 86 73 76 119 164 201 124 99 94 101 97 92 105 159 216 114 7 335 23 0 333
343 340 346 330 288 302 306 301 298 290 289 286 287 302 304 293 298 301 297 302 300 297 325 332 310 234 227 255 260 271 279 281 294 288 268 227 214 187 169 217 225 170 167 229 126 147 169 154 5 52 36 281 288 299 308 337 342 295 277 50 51 51 43 19 23 58 73 68 74 133 202 196 164 127 109 97 82 78 120 188 235 242 138 113 283 139 6 338